This demonstration page uses our WeatherBlox Daily Observations layout. Learn more.

Left ArrowRight Arrow

Hourly Observations for May 27, 2020

Temp ( °F °C ) Dew Point ( °F °C ) Humidity (%) Winds ( mph kmh ) Pressure ( in mb ) Visibility ( mi km ) Precip ( " mm )
12:52 am 00:52 Cloudy 66 18.9 63 17.2 90 90 Calm 29.86 1011 10 16 0.00 0.00
1:52 am 01:52 Cloudy 66 18.9 63 17.2 90 90 ENE 6 9 29.86 1011 10 16 0.00 0.00
2:09 am 02:09 Cloudy 66 18.9 64 17.8 93 93 E 3 6 29.85 1011 10 16 0.00 0.00
2:52 am 02:52 Cloudy with Light Rain 64 17.8 64 17.8 100 100 SW 3 6 29.84 1010 7 11 0.08 2.03
3:52 am 03:52 Cloudy 64 17.8 64 17.8 100 100 S 5 7 29.81 1010 10 16 0.01 0.25
4:52 am 04:52 Mostly Clear with Mist and Fog 63 17.2 62 16.7 97 97 Calm 29.82 1010 3 5 0.00 0.00
4:54 am 04:54 Mostly Clear with Mist and Fog 63 17.2 62 16.7 97 97 Calm 29.83 1010 2 2 0.00 0.00
4:58 am 04:58 Mostly Cloudy with Mist and Fog 62 16.7 62 16.7 100 100 Calm 29.82 1010 1 1 0.00 0.00
5:38 am 05:38 Mostly Cloudy with Fog 60 15.6 60 15.6 100 100 NNW 6 9 29.84 1011 0 0 0.00 0.00
5:52 am 05:52 Mostly Cloudy with Fog 61 16.1 61 16.1 100 100 NW 3 6 29.84 1010 1 1 0.00 0.00
6:15 am 06:15 Mostly Cloudy with Fog 62 16.7 62 16.7 100 100 Calm 29.85 1011 0 0 0.00 0.00
6:38 am 06:38 Mostly Cloudy with Mist and Fog 61 16.1 61 16.1 100 100 Calm 29.86 1011 1 2 0.00 0.00
6:52 am 06:52 Mostly Cloudy with Mist and Fog 62 16.7 62 16.7 100 100 Calm 29.85 1011 1 2 0.00 0.00
7:04 am 07:04 Cloudy with Mist and Fog 62 16.7 62 16.7 100 100 SSW 3 6 29.85 1011 3 5 0.00 0.00
7:20 am 07:20 Cloudy with Mist and Fog 63 17.2 63 17.2 100 100 Calm 29.85 1011 6 10 0.00 0.00
7:52 am 07:52 Partly Cloudy 65 18.3 65 18.3 100 100 Calm 29.85 1011 10 16 0.00 0.00
8:01 am 08:01 Mostly Cloudy 65 18.3 65 18.3 100 100 Calm 29.85 1011 10 16 0.00 0.00
8:25 am 08:25 Cloudy 65 18.3 64 17.8 97 97 Calm 29.86 1011 10 16 0.00 0.00
8:52 am 08:52 Cloudy 67 19.4 64 17.8 91 91 Calm 29.86 1011 10 16 0.00 0.00
9:52 am 09:52 Cloudy 67 19.4 65 18.3 93 93 WNW 3 6 29.86 1011 10 16 0.00 0.00
9:59 am 09:59 Cloudy 68 20 65 18.3 90 90 Calm 29.85 1011 10 16 0.00 0.00
10:45 am 10:45 Cloudy 68 20 65 18.3 90 90 WNW 5 7 29.84 1011 10 16 0.00 0.00
10:52 am 10:52 Cloudy 69 20.6 65 18.3 87 87 WNW 5 7 29.85 1011 10 16 0.00 0.00
11:20 am 11:20 Mostly Cloudy 70 21.1 65 18.3 84 84 N 6 9 29.84 1010 10 16 0.00 0.00
11:36 am 11:36 Partly Cloudy 70 21.1 63 17.2 79 79 NNE 3 6 29.84 1010 10 16 0.00 0.00
11:52 am 11:52 Mostly Cloudy with Light Rain 70 21.1 64 17.8 82 82 NNW 5 7 29.84 1011 10 16 0.00 0.00
12:15 pm 12:15 Mostly Cloudy 71 21.7 65 18.3 81 81 NNW 5 7 29.83 1010 10 16 0.00 0.00
12:47 pm 12:47 Mostly Cloudy 72 22 66 19 83 83 NE 7 11 29.81 1010 10 16 0.00 0.00
12:52 pm 12:52 Mostly Cloudy 72 22.2 65 18.3 79 79 NNE 7 11 29.83 1010 10 16 0.00 0.00
1:39 pm 13:39 Cloudy with Rain 69 20.6 64 17.8 84 84 Calm 29.82 1010 2 3 0.03 0.76
1:52 pm 13:52 Cloudy with Strong Thunderstorms 67 19.4 65 18.3 93 93 SE 7 11 29.83 1010 1 2 0.10 2.54
2:06 pm 14:06 Cloudy with Light Rain 66 18.9 66 18.9 100 100 NW 3 6 29.82 1010 3 4 0.24 6.10
2:13 pm 14:13 Cloudy with Light Rain 67 19.4 66 18.9 97 97 Calm 29.82 1010 8 13 0.24 6.10
2:34 pm 14:34 Mostly Cloudy with Nearby Thunderstorms 67 19.4 63 17.2 87 87 N 9 15 29.82 1010 10 16 0.24 6.10
2:49 pm 14:49 Mostly Cloudy 72 22 66 19 83 83 NNE 8 13 29.80 1009 10 16 0.24 6.10
2:52 pm 14:52 Mostly Cloudy 72 22.2 66 18.9 82 82 NNE 8 13 29.82 1010 10 16 0.24 6.10
3:52 pm 15:52 Cloudy with Light Rain 70 21.1 66 18.9 87 87 NE 10 17 29.80 1009 10 16 0.00 0.00
4:52 pm 16:52 Cloudy with Light Rain 70 21.1 66 18.9 87 87 NNE 8 13 29.80 1009 10 16 0.03 0.76
5:52 pm 17:52 Partly Cloudy 70 21.1 64 17.8 82 82 WSW 13 20 29.81 1010 10 16 0.00 0.00
6:04 pm 18:04 Mostly Cloudy with Nearby Thunderstorms 65 18.3 59 15 81 81 WSW 16 26 29.80 1009 10 16 0.00 0.00
6:07 pm 18:07 Mostly Cloudy with Thunderstorms 64 17.8 59 15 84 84 W 12 19 29.81 1010 10 16 0.00 0.00
6:26 pm 18:26 Cloudy with Strong Thunderstorms 63 17.2 60 15.6 90 90 SSE 8 13 29.83 1010 1 2 0.01 0.25
6:34 pm 18:34 Cloudy with Strong Thunderstorms 62 16.7 61 16.1 96 96 VRB 5 7 29.83 1010 1 1 0.44 11.18
6:39 pm 18:39 Cloudy with Thunderstorms 62 16.7 59 15 90 90 ENE 13 20 29.83 1010 2 3 0.51 12.95
6:52 pm 18:52 Cloudy with Thunderstorms 61 16.1 59 15 93 93 N 6 9 29.82 1010 3 4 0.60 15.24
7:02 pm 19:02 Cloudy with Thunderstorms 61 16.1 60 15.6 97 97 NW 7 11 29.82 1010 5 8 0.04 1.02
7:17 pm 19:17 Cloudy with Nearby Thunderstorms 62 16.7 61 16.1 96 96 NW 5 7 29.82 1010 10 16 0.04 1.02
7:37 pm 19:37 Mostly Cloudy 62 16.7 61 16.1 96 96 Calm 29.84 1010 10 16 0.04 1.02
7:52 pm 19:52 Mostly Sunny 62 16.7 60 15.6 93 93 NNW 3 6 29.83 1010 10 16 0.04 1.02
8:52 pm 20:52 Clear 62 16.7 60 15.6 93 93 SSE 3 6 29.85 1011 10 16 0.00 0.00
9:52 pm 21:52 Mostly Clear 62 16.7 60 15.6 93 93 Calm 29.85 1011 10 16 0.00 0.00
10:52 pm 22:52 Clear 59 15 59 15 100 100 Calm 29.86 1011 10 16 0.00 0.00
11:36 pm 23:36 Clear with Mist and Fog 59 15 59 15 100 100 Calm 29.86 1011 2 3 0.00 0.00
11:52 pm 23:52 Mostly Clear with Mist and Fog 59 15 58 14.4 96 96 WNW 3 6 29.85 1011 2 2 0.00 0.00
11:55 pm 23:55 Mostly Clear with Mist and Fog 59 15 58 14.4 96 96 Calm 29.86 1011 3 5 0.00 0.00

Powered by AerisWeather